Terug naar catalogus

HAKUTO-R

ActiefWetenschapHEO
NORAD 62717·PAYLOAD·🇯🇵 Japan

Gelanceerd Jan 15, 2025 vanaf Cape Canaveral Space Force Station

Loading…

Volgende Passages (komende 24 uur)

TLE

VerouderdSource: Space-Track

Epoch: Jan 15, 2025, 07:37 UTC

1 62717U 25010B   25015.31796730 -.00038243  31373-4  00000-0 0  9992
2 62717  35.1700   0.1839 9650900 345.5700   0.7230  0.10673359    01

Volg HAKUTO-R in realtime met AllMySat

Download on the App Store